Starlink 32704

operational
NORAD ID: 62826 Int'l Des: 2025-018 Owner: SPXS Country: US Constellation: starlink
LEOCIRCULAR

Starlink 32704について

説明を読み込み中...

リアルタイム位置

3D地球を読み込み中...

次回通過

高度履歴

Altitude vs Time

uPlot chart will show altitude changes over time

軌道要素

1 62826U 25018W 25304.00844867 .00035714 00000-0 12126-2 0 9995
2 62826 53.1596 191.9702 0001024 101.0102 259.1014 15.30188601 43312
Epoch: Oct 31, 2025 • Age: 16 hours

現在のステータス

高度 478.1 km
速度 7.63 km/s
衛星直下点 39.06°N, 55.66°W
打ち上げ日 Jan 24, 2025
運用期間 0.7 years
タイプ internet

技術仕様

分類 Payload
質量 730.00 kg
乾燥質量 700.00 kg
総質量 730.00 kg
長さ 0.30 m
直径 4.10 m
スパン 29.00 m
形状 Box + pan
製造者 SPXS
バスタイプ Starlink V2M
フェーズステータス In Orbit
所有者/国 SPXS/US

大規模コンステレーション

Loading constellations...